EHI
0 0 0 0 0 0 0 0 0 0 0 0 0 0 0 0 0 1 14 33 32 15 5 1 0 1 2 3 5 4 2 0 0 0 0 0 0 0 0 0 0 0 0
0 0 0 0 0 0 0 0 0 0 0 0 0 0 0 0 0 0 6 15 20 14 6 3 2 2 1 2 4 5 3 1 0 0 0 0 0 0 0 0 0 0 0
0 0 0 0 0 0 0 0 0 0 0 0 0 0 0 0 0 0 0 2 5 6 4 4 4 3 2 1 2 3 3 1 0 0 0 0 0 0 0 0 0 0 0
0 0 0 0 0 0 0 0 0 0 0 0 0 0 0 0 0 0 0 0 0 0 0 1 2 3 3 2 1 1 1 1 0 0 0 0 0 0 0 0 0 0 0
0 0 0 0 0 0 0 0 0 0 0 0 0 0 0 0 0 0 0 0 0 0 0 0 0 1 2 2 1 1 1 0 0 0 0 0 0 0 0 0 0 0 0
0 0 0 0 0 0 0 0 0 0 0 0 0 0 0 0 0 0 0 0 0 0 0 0 0 0 1 1 1 1 1 0 0 0 0 0 0 0 0 0 0 0 0
0 0 0 0 0 0 0 0 0 0 0 0 0 0 0 0 0 0 0 0 0 0 0 0 0 0 0 0 0 1 1 0 0 0 0 0 0 0 0 0 0 0 0
0 0 0 0 0 0 0 0 0 0 0 0 0 0 0 0 0 0 0 0 0 0 0 0 0 0 0 0 0 0 0 0 0 1 0 0 0 0 0 0 0 0 0
0 0 0 0 0 0 0 0 0 0 0 0 0 0 0 0 0 0 0 0 0 0 0 0 0 0 0 0 0 0 0 0 0 0 0 0 1 1 0 0 0 0 0
0 0 0 0 0 0 0 0 0 0 0 0 0 0 0 0 0 0 0 0 0 0 0 0 0 0 0 0 0 0 0 0 0 0 0 0 1 1 0 0 0 0 0
0 0 0 0 0 0 0 0 0 0 0 0 0 0 0 0 0 0 0 0 0 0 0 0 0 0 0 0 0 0 0 0 0 0 0 0 0 0 0 0 0 0 0
0 0 0 0 0 0 0 0 0 0 0 0 0 0 0 0 0 0 0 0 0 0 0 0 0 0 0 0 0 0 0 0 0 0 0 0 0 0 0 0 0 0 0
0 0 0 0 0 0 0 0 0 0 0 1 0 0 0 0 0 0 0 0 0 0 0 0 0 0 0 0 0 0 0 0 0 0 0 0 0 0 0 0 0 0 0
0 0 0 0 0 0 0 0 0 0 0 0 0 0 0 0 0 0 0 0 0 0 0 0 0 0 0 0 0 0 0 0 0 0 0 0 0 0 0 0 0 0 0
0 0 0 0 0 0 0 0 0 0 0 0 0 0 0 0 0 0 0 0 0 0 0 0 0 0 0 0 0 0 0 0 0 0 0 0 0 0 0 0 0 0 0
0 0 0 0 0 0 0 0 0 0 0 0 0 0 0 0 0 0 0 0 0 0 0 0 0 0 0 0 0 0 0 0 0 0 0 0 0 0 0 0 0 0 0
0 0 0 0 0 0 0 0 0 0 0 0 0 0 0 0 0 0 0 0 0 0 0 0 0 0 0 0 0 0 0 0 0 0 0 0 0 0 0 0 0 0 0
0 0 0 0 0 0 0 0 0 0 0 0 0 0 0 0 0 0 0 0 0 0 0 0 0 0 0 0 0 0 0 0 0 0 0 0 0 0 0 0 0 0 0
0 0 0 0 0 0 0 0 0 0 0 0 0 0 0 0 0 0 0 0 0 0 0 0 0 0 0 0 0 0 0 0 0 0 0 0 0 0 0 0 0 0 0
0 0 0 0 0 0 0 0 0 0 0 0 0 0 0 0 0 0 0 0 0 0 0 0 0 0 0 0 0 0 0 0 0 0 0 0 0 0 0 0 0 0 0
0 0 0 0 0 0 0 0 0 0 0 0 0 0 0 0 0 1 0 0 0 0 0 0 0 0 0 0 0 0 0 0 0 0 0 0 0 0 0 0 0 0 0
0 0 0 0 0 0 0 0 0 0 0 0 0 0 0 0 0 0 0 0 0 0 0 0 0 0 0 0 0 0 0 0 0 0 0 0 0 0 0 0 0 0 0
1 0 0 0 0 0 0 0 0 0 0 0 0 0 0 0 0 0 0 0 0 0 0 0 0 0 0 0 0 0 0 0 0 0 0 0 0 0 0 0 0 0 0
5 2 0 0 0 0 0 0 0 0 0 0 0 0 0 0 0 0 0 0 0 0 0 0 0 0 0 0 0 0 0 0 0 0 0 0 0 0 0 0 0 0 0
10 4 0 0 0 0 0 0 0 0 0 0 0 0 0 0 0 0 0 0 0 0 0 0 0 0 0 0 0 0 0 0 0 0 0 0 0 0 0 0 0 0 0
10 4 0 0 0 0 0 0 0 0 0 0 0 0 0 0 0 0 0 0 0 0 0 0 0 0 0 0 0 0 0 0 0 0 0 0 0 0 0 0 0 0 0
Wind_Speed
6 7 6 5 4 3 4 5 5 5 5 7 7 8 9 10 10 7 8 16 15 11 9 9 9 8 8 8 8 7 4 3 2 1 1 1 1 2 4 5 5 5 6
6 7 8 7 7 5 4 5 6 6 5 6 7 8 9 9 10 9 7 11 18 17 14 12 11 10 9 10 11 11 9 7 6 5 4 3 3 4 4 4 5 5 7
7 7 8 8 7 6 5 4 6 5 5 6 6 6 7 8 8 10 8 7 8 14 18 18 16 13 11 11 12 12 11 10 8 7 6 6 5 5 4 3 3 4 6
9 8 8 8 7 6 6 6 5 5 6 5 4 5 5 6 7 8 8 8 6 5 10 16 18 17 14 12 11 12 10 9 7 6 6 5 6 5 3 1 2 4 5
9 8 7 8 9 7 7 8 7 6 5 5 5 4 5 5 6 6 9 9 7 6 6 8 12 16 16 16 15 12 9 8 8 7 5 4 4 4 3 2 2 2 4
10 8 7 9 9 7 6 7 8 7 6 5 5 4 4 4 5 5 8 7 7 8 7 6 4 7 12 14 15 16 15 11 11 9 7 5 5 3 3 1 1 1 3
7 4 6 9 9 8 9 7 6 7 7 6 6 5 4 4 5 3 4 5 6 6 7 6 4 4 5 9 14 16 16 15 12 9 7 6 5 3 3 3 3 2 2
5 3 7 7 10 10 8 7 8 6 6 7 7 6 5 6 5 4 3 3 5 4 5 6 6 6 5 5 8 14 15 14 12 11 10 11 9 3 1 3 3 3 3
8 5 6 6 8 10 9 10 9 11 9 9 8 6 4 3 7 5 6 4 3 3 3 4 5 6 5 5 4 10 13 13 15 15 14 14 14 10 4 3 3 2 2
12 10 11 11 10 10 10 9 12 11 11 9 9 8 4 3 5 6 6 5 5 4 4 2 2 3 4 4 6 8 11 11 13 14 13 13 14 14 11 9 9 9 8
12 13 13 10 11 11 11 10 10 11 11 10 11 9 7 5 5 4 7 8 6 5 4 3 2 1 3 3 4 6 9 9 11 12 12 11 12 14 14 11 10 11 11
7 12 13 11 8 10 11 8 9 11 10 12 11 10 9 9 7 6 4 8 7 7 6 4 3 2 2 2 5 4 5 8 9 10 11 11 12 14 15 15 15 15 13
4 8 10 11 11 11 8 5 4 6 11 11 12 10 9 9 7 6 5 5 6 6 6 6 5 4 3 2 4 2 3 5 5 6 8 9 11 12 13 13 14 13 10
4 7 8 10 10 8 9 10 9 4 9 10 12 11 8 7 6 5 6 4 5 5 6 6 6 5 4 2 5 1 3 2 3 4 6 8 9 10 10 11 10 9 9
3 6 8 8 8 8 9 10 11 9 6 9 9 10 8 7 7 6 7 7 6 5 4 5 7 6 5 5 5 2 2 5 2 4 4 6 7 8 9 8 7 9 9
5 4 3 4 6 8 9 9 9 9 6 3 2 2 4 5 7 8 8 8 8 7 6 4 5 7 7 6 7 3 5 4 5 4 5 4 6 7 7 7 6 7 8
6 7 8 8 8 9 8 6 7 9 6 4 1 3 7 10 8 8 9 9 8 8 8 4 5 6 9 8 8 5 5 5 6 5 4 4 4 5 6 6 5 5 7
6 6 5 6 6 7 8 8 7 8 6 4 2 6 9 7 8 8 8 10 9 9 8 7 6 6 9 10 9 7 5 3 4 7 5 4 3 3 3 4 5 6 5
7 7 7 8 8 8 9 9 8 8 8 8 8 5 9 11 9 9 10 9 9 8 7 8 7 6 7 9 10 8 7 5 4 6 6 5 5 4 3 2 4 5 3
8 7 8 8 9 9 9 9 9 9 11 12 11 10 9 12 11 10 9 10 10 9 9 8 8 8 7 7 9 9 8 7 6 6 5 4 5 6 5 4 2 4 3
8 8 7 7 8 7 8 10 11 12 13 12 13 12 10 13 9 7 8 9 8 8 8 8 7 7 7 7 10 10 9 8 8 7 7 7 8 8 8 7 5 4 5
10 8 8 8 7 6 6 5 5 6 8 10 10 9 8 9 9 8 11 12 9 9 9 9 7 9 12 11 10 10 8 7 7 8 8 8 7 6 6 5 6 6 5
10 10 11 10 10 7 7 8 8 7 8 9 10 10 10 7 7 9 12 12 12 12 12 11 11 13 12 10 12 12 11 11 7 7 8 8 8 7 7 7 7 5 4
11 11 12 12 10 7 7 7 7 11 10 10 10 10 8 9 10 10 9 8 10 10 11 12 12 9 5 6 11 12 12 10 6 5 8 6 9 8 8 8 12 8 6
11 11 10 9 9 8 9 8 8 10 10 10 9 10 9 9 6 6 9 8 8 7 4 4 2 2 5 7 9 9 9 9 8 7 8 6 7 7 7 7 11 12 9
9 8 7 7 7 9 8 9 10 9 8 6 6 6 5 4 4 6 7 6 6 4 4 4 4 5 6 9 11 12 11 10 8 7 9 8 7 7 6 8 8 10 10
Wind_Direction
179 162 166 157 148 169 148 145 142 120 94 70 70 72 74 81 85 74 55 48 44 51 60 62 64 63 62 65 65 67 79 84 95 103 349 328 354 33 30 5 351 347 351
183 183 163 159 168 174 161 147 127 124 117 99 80 74 75 74 82 87 75 57 46 41 45 57 65 70 70 69 64 59 56 55 51 40 24 5 5 17 24 13 359 358 5
188 189 164 178 167 157 150 137 140 134 122 115 106 89 78 76 73 74 69 60 56 46 39 38 42 52 59 65 65 62 61 60 49 35 32 29 18 13 22 9 11 23 18
189 190 175 182 173 166 155 154 163 153 142 138 128 101 87 76 79 76 73 70 54 54 53 37 32 36 48 55 62 59 57 58 49 42 24 18 9 3 8 350 46 41 19
196 185 193 184 178 179 172 162 171 164 153 155 142 123 96 76 70 78 69 64 66 54 54 60 47 35 36 42 43 45 48 48 48 49 31 9 358 352 351 74 80 39 350
214 200 199 199 187 183 186 176 169 171 168 172 148 125 106 99 88 71 75 67 64 66 59 50 58 57 46 39 34 31 32 43 40 38 31 14 356 329 304 322 332 345 325
212 221 229 210 198 189 198 197 182 185 178 173 151 140 139 124 111 104 92 89 79 72 76 72 54 52 67 60 39 33 29 28 28 26 33 31 15 351 320 316 285 260 314
179 208 249 238 205 200 203 208 196 182 187 192 180 168 179 164 154 144 126 100 99 92 76 68 67 61 51 57 55 43 28 20 23 40 49 51 41 32 268 305 307 266 259
166 151 240 253 254 231 201 211 203 193 190 203 214 195 210 183 152 168 174 166 146 128 95 69 68 66 53 53 58 50 26 20 25 33 43 42 33 36 55 52 34 2 294
189 191 213 225 232 253 231 210 213 205 203 195 214 233 251 184 192 162 182 193 192 174 158 136 83 80 79 68 70 43 20 26 31 28 28 30 34 43 68 67 69 68 63
204 214 218 222 226 240 241 227 217 215 210 203 206 209 212 218 238 208 165 179 198 200 190 169 151 121 77 76 72 52 15 20 38 33 26 22 29 35 46 53 66 68 62
221 222 217 220 227 241 241 239 217 222 220 218 210 210 206 208 212 229 192 166 186 178 184 184 185 153 127 94 72 51 21 12 38 39 34 30 31 31 29 36 51 52 49
240 247 228 216 214 219 204 164 170 222 227 226 227 220 217 214 218 219 225 177 184 161 180 182 182 167 161 156 97 25 60 22 33 49 49 42 38 35 30 27 35 36 42
217 235 236 232 226 203 173 159 138 181 236 221 227 225 227 229 231 238 241 234 208 186 184 178 162 173 161 132 89 244 130 69 38 86 68 53 46 40 33 29 30 25 32
213 247 234 219 202 182 173 166 144 148 214 222 206 219 215 220 215 235 246 247 242 233 219 200 158 171 163 152 134 208 132 105 86 111 102 65 52 42 31 23 29 28 24
186 213 199 206 196 180 181 168 143 141 160 160 163 207 239 236 217 216 223 238 247 250 239 201 142 144 169 163 135 200 104 151 135 118 111 91 68 52 33 22 22 21 13
182 194 212 204 199 188 180 161 154 148 153 134 77 275 241 232 222 217 216 223 230 236 243 181 130 156 177 175 149 181 152 205 144 136 121 115 94 61 47 33 24 9 359
197 210 210 203 200 176 171 166 163 154 160 159 226 265 263 235 229 224 219 221 224 225 222 221 158 178 190 183 173 181 186 201 197 141 157 153 142 108 76 45 20 351 0
201 210 194 198 210 192 181 182 185 170 178 199 214 241 275 261 225 228 227 225 226 231 213 225 169 175 198 182 181 196 193 197 213 140 179 184 176 163 141 73 27 355 14
208 211 208 201 210 210 203 195 192 209 203 207 203 209 227 262 250 236 238 233 222 225 221 219 180 174 188 187 191 200 204 206 211 188 193 178 179 170 174 173 88 22 39
213 218 221 209 211 205 205 205 198 216 218 211 207 202 196 225 255 279 276 259 235 227 223 222 202 181 181 185 199 203 209 199 214 199 197 189 190 188 176 194 160 100 66
224 220 234 228 219 207 175 221 228 221 243 240 232 223 213 220 231 237 247 259 266 249 228 222 216 208 201 203 200 200 202 195 205 191 200 191 189 194 186 172 113 105 98
215 213 218 228 236 222 170 205 223 239 242 249 248 230 204 198 226 234 226 231 246 242 240 239 232 232 231 204 187 196 203 205 209 152 185 181 177 192 180 138 139 165 158
202 206 212 212 222 222 177 205 219 244 244 245 248 248 232 214 207 221 233 231 234 225 227 236 247 251 252 185 189 203 204 203 200 156 199 193 173 186 174 164 157 180 189
206 206 213 214 215 219 181 197 215 243 244 245 241 233 223 224 202 208 240 242 248 241 215 232 260 103 151 182 204 200 200 194 197 191 200 216 173 178 172 189 173 177 188
217 215 210 210 219 232 188 196 217 237 236 231 228 219 203 230 167 202 241 255 264 260 232 194 171 179 189 204 215 207 199 201 208 197 186 201 175 179 183 189 186 176 189